Regional Weather Roundup
Issued by NWS Kansas City/Pleasant Hill, MO

Home | Current Version | Previous Version | Graphics & Text | Print | Product List | Glossary Off
Versions: 1 2 3 4 5 6 7 8 9 10 11 12 13 14 15 16 17 18 19 20 21 22 23 24 25 26 27 28 29 30 31 32 33 34 35 36 37 38 39 40 41 42 43 44 45 46 47 48 49 50

000
ASUS43 KEAX 150004
RWREAX

WEATHER ROUNDUP FOR EASTERN KANSAS AND NORTHWEST MISSOURI
NATIONAL WEATHER SERVICE KANSAS CITY/PLEASANT HILL MO
700 PM CDT SUN SEP 14 2014

KSZ040-057-103>105-MOZ028-029-037-043-150100-
...KANSAS CITY METROPOLITAN AREA...

CITY           SKY/WX    TMP DP  RH WIND       PRES   REMARKS
K.C. INTL      MOCLDY    68  57  68 SE10      30.09F
6HR MIN TEMP:  68; 6HR MAX TEMP:  72;

K.C. DOWNTOWN  MOCLDY    72  55  55 SE9       30.08F
6HR MIN TEMP:  70; 6HR MAX TEMP:  74;

LEES SUMMIT    CLEAR     68  56  65 SE6       30.11F
6HR MIN TEMP:  67; 6HR MAX TEMP:  72;

OLATHE - IXD   CLEAR     69  56  62 SE10      30.10F
6HR MIN TEMP:  67; 6HR MAX TEMP:  72;

OLATHE - OJC   PTCLDY    68  56  65 SE10      30.09F
6HR MIN TEMP:  66; 6HR MAX TEMP:  70;

LAWRENCE       PTCLDY    70  56  61 SE10      30.09S

$$

MOZ001>008-011>017-020>025-030>033-038>040-044>046-053-054-150100-
...NORTHERN AND CENTRAL MISSOURI...

CITY           SKY/WX    TMP DP  RH WIND       PRES   REMARKS
ST. JOSEPH     MOCLDY    68  56  65 SE7       30.08F
6HR MIN TEMP:  68; 6HR MAX TEMP:  73;

MOSBY          MOCLDY    68  55  64 SE5       30.11S
WHITEMAN AFB   CLEAR     66  57  72 S5        30.13F
6HR MIN TEMP:  66; 6HR MAX TEMP:  71;

CLINTON        CLEAR     70  57  64 CALM      30.14F
SEDALIA        CLEAR     67  56  67 S6        30.15S
6HR MIN TEMP:  67; 6HR MAX TEMP:  71;

WARSAW         NOT AVBL
MARSHALL       CLOUDY    70  57  64 SE6       30.15F
CHILLICOTHE    NOT AVBL
MOBERLY        CLEAR     66  50  55 S6        30.16S
KIRKSVILLE     CLEAR     62  53  72 SE5       30.15S
6HR MIN TEMP:  62; 6HR MAX TEMP:  69;


$$

MOZ041-047>049-056>058-063>065-088>090-097-150100-
...EASTERN AND SOUTHERN MISSOURI...

CITY           SKY/WX    TMP DP  RH WIND       PRES   REMARKS
ST. LOUIS INTL PTCLDY    68  47  46 E7        30.19R
6HR MIN TEMP:  68; 6HR MAX TEMP:  73;

SPIRIT OF STL  CLEAR     63  55  75 CALM      30.17S
COLUMBIA       PTCLDY    64  53  67 S6        30.17S
JEFFERSON CITY MOCLDY    67  52  58 CALM      30.16S
MEXICO         CLEAR     66  57  72 S5        30.16F
ROLLA          CLOUDY    65  52  62 E5        30.16S
LEBANON        CLEAR     70  54  56 E6        30.17S
OSAGE BEACH    CLEAR     66  52  59 E3        30.16S
SPRINGFIELD    CLEAR     71  53  52 S9        30.15S
BRANSON        MOCLDY    75  54  46 SE8       30.17S
JOPLIN         CLEAR     73  58  59 S7        30.13S
WEST PLAINS    CLEAR     69  50  50 SE3       30.20S

$$

IAZ060-094-KSZ022-034>040-054-083-096-NEZ052-066-093-150100-
...KANSAS...SOUTHEAST NEBRASKA AND IOWA...

CITY           SKY/WX    TMP DP  RH WIND       PRES   REMARKS
TOPEKA         CLOUDY    72  55  55 S8        30.09R
6HR MIN TEMP:  71; 6HR MAX TEMP:  75;

MANHATTAN      PTCLDY    72  57  59 SE10      30.04F
EMPORIA        CLOUDY    71  59  65 SE9       30.08F
CHANUTE        CLEAR     73  58  59 S13       30.10S
WICHITA        PTCLDY    80  59  48 S18       30.03S
OMAHA          MOCLDY    68  51  54 SE9       30.07R
LINCOLN        CLOUDY    69  52  54 SE7       30.06S
FALLS CITY     CLOUDY    69  55  60 S6        30.08R
LAMONI         CLEAR     64  50  60 SE5       30.12S
DES MOINES     MOCLDY    66  52  60 S5        30.12R

$$



USA.gov is the U.S. government's official web portal to all federal, state and local government web resources and services.